Location: Greenwich
(51.4790°N, 0.0090°E)
Time: 16:15:31
(UTC+01:00)

Vanguard 3 - All Passes

Search period start: 23 June 2025 00:00
Search period end: 03 July 2025 00:00
Orbit: 508 x 3215 km, 33.4° (Epoch: 22 June)

Date Brightness Start Highest point End Pass type
(mag) Time Alt. Az. Time Alt. Az. Time Alt. Az.
23 Jun - 01:56:39 10° WSW 02:03:17 13° SW 02:09:31 10° SSW visible
23 Jun - 15:51:47 10° SE 15:54:01 11° SE 15:56:24 10° ESE daylight
23 Jun - 17:53:15 10° SSW 18:04:07 30° SSE 18:18:34 10° E daylight
23 Jun - 20:02:29 10° WSW 20:16:33 41° S 20:33:50 10° ESE daylight
23 Jun - 22:14:30 10° WSW 22:30:01 38° SSW 22:46:16 10° SE visible
24 Jun - 00:29:50 10° W 00:42:30 22° SW 00:54:24 10° S visible
24 Jun - 16:35:43 10° S 16:43:37 20° SE 16:53:47 10° E daylight
24 Jun - 18:42:40 10° SW 18:54:45 37° SSE 19:10:56 10° ESE daylight
24 Jun - 20:53:14 10° WSW 21:07:49 41° S 21:25:01 10° SE daylight
24 Jun - 23:06:24 10° W 23:21:02 30° SSW 23:35:49 10° SSE visible
25 Jun - 01:25:50 10° WSW 01:32:36 13° SW 01:39:07 10° SSW visible
25 Jun - 17:23:54 10° SSW 17:33:41 28° SSE 17:47:10 10° E daylight
25 Jun - 19:32:50 10° SW 19:45:45 40° S 20:02:44 10° ESE daylight
25 Jun - 21:44:25 10° WSW 21:59:04 37° SSW 22:15:32 10° SE visible
25 Jun - 23:59:19 10° W 00:11:40 22° SW 00:23:52 10° S visible
26 Jun - 16:06:38 10° S 16:13:26 18° SE 16:22:16 10° ESE daylight
26 Jun - 18:13:17 10° SW 18:24:13 35° SSE 18:39:36 10° ESE daylight
26 Jun - 20:23:28 10° WSW 20:36:57 40° S 20:54:01 10° SE daylight
26 Jun - 22:36:13 10° WSW 22:50:07 30° SSW 23:05:05 10° SSE visible
27 Jun - 00:55:25 10° WSW 01:01:54 13° SW 01:08:18 10° SSW visible
27 Jun - 16:54:43 10° SSW 17:03:25 27° SSE 17:15:43 10° ESE daylight
27 Jun - 19:03:21 10° SW 19:15:08 39° S 19:31:28 10° ESE daylight
27 Jun - 21:14:34 10° WSW 21:28:11 36° SSW 21:44:34 10° SE daylight
27 Jun - 23:29:05 10° WSW 23:40:50 21° SW 23:53:02 10° S visible
28 Jun - 15:37:44 10° S 15:43:25 16° SE 15:50:42 10° ESE daylight
28 Jun - 17:44:03 10° SW 17:53:51 33° SSE 18:08:10 10° ESE daylight
28 Jun - 19:53:54 10° WSW 20:06:15 38° S 20:22:47 10° SE daylight
28 Jun - 22:06:16 10° WSW 22:19:15 29° SSW 22:34:06 10° SSE visible
29 Jun - 00:25:29 10° WSW 00:31:11 12° SW 00:36:57 10° SSW visible
29 Jun - 16:25:42 10° SSW 16:33:20 25° SSE 16:44:14 10° ESE daylight
29 Jun - 18:34:03 10° SW 18:44:40 37° S 19:00:04 10° ESE daylight
29 Jun - 20:44:55 10° WSW 20:57:26 34° SSW 21:13:22 10° SE daylight
29 Jun - 22:59:08 10° WSW 23:10:03 20° SW 23:21:54 10° S visible
30 Jun - 15:09:04 10° SSE 15:13:34 14° SE 15:19:09 10° ESE daylight
30 Jun - 17:14:58 10° SW 17:23:41 31° SSE 17:36:41 10° ESE daylight
30 Jun - 19:24:33 10° WSW 19:35:42 36° S 19:51:24 10° SE daylight
30 Jun - 21:36:34 10° WSW 21:48:30 27° SSW 22:02:50 10° SSE visible
30 Jun - 23:56:17 10° WSW 00:00:31 11° SW 00:04:51 10° SSW visible
01 Jul - 15:56:49 10° SSW 16:03:25 22° SSE 16:12:48 10° ESE daylight
01 Jul - 18:04:55 10° SW 18:14:24 34° S 18:28:35 10° ESE daylight
01 Jul - 20:15:29 10° WSW 20:26:50 32° SSW 20:41:57 10° SE daylight
01 Jul - 22:29:29 10° WSW 22:39:21 19° SW 22:50:28 10° S visible
02 Jul - 14:40:44 10° SSE 14:43:50 12° SE 14:47:30 10° ESE daylight
02 Jul - 16:46:01 10° SW 16:53:41 29° SSE 17:05:13 10° ESE daylight
02 Jul - 18:55:21 10° WSW 19:05:21 34° S 19:19:53 10° SE daylight
02 Jul - 21:07:07 10° WSW 21:17:53 25° SSW 21:31:21 10° SSE daylight
